Weather Roundup
Issued by NWS Corpus Christi, TX

Home | Current Version | Previous Version | Text Only | Print | Product List | Glossary On
Versions: 1 2 3 4 5 6 7 8 9 10 11 12 13 14 15 16 17 18 19 20 21 22 23 24 25 26 27 28 29 30 31 32 33 34 35 36 37 38 39 40 41 42 43 44 45 46 47 48 49 50
564
ASUS44 KCRP 051610
HRRCRP

SOUTH TEXAS REGIONAL WEATHER ROUNDUP
NATIONAL WEATHER SERVICE CORPUS CHRISTI TX
1100 AM CDT THU MAY 05 2016


TXZ229>244-051700-
...CORPUS CHRISTI AREA OBSERVATIONS...

CITY           SKY/WX    TMP DP  RH WIND       PRES   REMARKS
CORPUS CHRISTI MOSUNNY   79  55  43 VRB7      30.08R
NAS CORPUS CHR MOSUNNY   79  60  52 W8        30.07S
ROCKPORT       SUNNY     80  54  40 W9        30.07S
KINGSVILLE NAS MOSUNNY   83  59  44 W6        30.07S
ALICE          SUNNY     82  52  35 VRB3      30.07S
FALFURRIAS     SUNNY     86  50  29 W3        30.06S
$$

...VICTORIA AREA OBSERVATIONS...

CITY           SKY/WX    TMP DP  RH WIND       PRES   REMARKS
VICTORIA       SUNNY     81  58  45 W7        30.07S
BEEVILLE       FAIR      83  55  37 NW6       30.08S
PLEASANTON     SUNNY     80  51  36 CALM      30.10S
SAN ANTONIO    MOSUNNY   79  50  36 VRB3      30.10S
$$

...LAREDO AREA OBSERVATIONS...

CITY           SKY/WX    TMP DP  RH WIND       PRES   REMARKS
LAREDO         SUNNY     80  57  45 W5        30.09S
COTULLA        SUNNY     83  50  31 VRB3      30.09F
DEL RIO        CLOUDY    78  50  37 E6        30.11S
MCALLEN        SUNNY     87  55  33 S8        30.07R
HEBBRONVILLE   SUNNY     86  42  21 CALM      30.08S
$$

...OTHER TEXAS OBSERVATIONS...

CITY           SKY/WX    TMP DP  RH WIND       PRES   REMARKS
BROWNSVILLE    SUNNY     82  55  39 SW9       30.07S
HOUSTON        MOSUNNY   78  49  35 NE8       30.05R
COL. STATION   SUNNY     77  49  37 NE8       30.08R
AUSTIN         MOSUNNY   79  54  41 NE9       30.08S
WACO           SUNNY     76  52  43 NE3       30.10S
FORT WORTH     MOSUNNY   75  43  31 CALM      30.11R
WICHITA FALLS  SUNNY     73  45  36 SE5       30.13R
LUBBOCK        MOSUNNY   79  31  17 SW13      30.15F
EL PASO        PTSUNNY   76  23  14 SE14      30.14S
$$

...MARINE OBSERVATIONS...

STATION/POSITION TIME  SKY/WX   TEMP    WIND        PRES    VSBY  WAVE   SWELL
                                AIR SEA DIR/SP/G                  HT/PER HT/PER
                 (UTC)          (F)     (DEG/KT/KT) (MB)    (MI)  (FT/S) (FT/S)
PORT ARANSAS     1500            74 76  250/ 10/ 11 1019.0R
BUOY 90 E PORT A 1550            74 76  290/ 16/ 17 1017.6R         3/ 4
BUOY 45 SE BAFFI 1550            73 74  250/ 10/ 12 1018.0R         2/ 4   2/ 7
BUOY 200 E PT IS 1550                                 N/A           2/ 6   2/ 7
BUOY 15 E GALVES 1550            72 76   10/  8/ 10 1016.5R         2/ 4   2/ 4
$$




USA.gov is the U.S. government's official web portal to all federal, state and local government web resources and services.